Skip Page Navigation
NASA JPL Caltech
NASA Logo - Jet Propulsion Laboratory + View the NASA Portal
+ Center for Near-Earth Object Studies
JPL Home Earth Solar System Stars & Galaxies Technology
JPL Solar System Dynamics
BODIES ORBITS EPHEMERIDES TOOLS PHYSICAL DATA DISCOVERY FAQ SITE MAP
JPL Small-Body Database Browser
Search: [ help ]  
1312 Vassar (1933 OT)
Classification: Main-belt Asteroid          SPK-ID: 2001312
Ephemeris | Orbit Diagram | Orbital Elements | Mission Design | Physical Parameters | Discovery Circumstances | Close-Approach Data ]

[ hide orbit diagram ]

For accurate long-term ephemerides, please instead use our Horizons system.This orbit viewer was implemented using two-body methods, and hence should not be used for determining accurate long-term trajectories (over several years or decades) or planetary encounter circumstances.


Orbital Elements at Epoch 2459200.5 (2020-Dec-17.0) TDB
Reference: JPL 51 (heliocentric ecliptic J2000)
 Element Value Uncertainty (1-sigma)   Units 
e .2111043707874678 3.04e-08  
a 3.098141832917003 1.153e-08 au
q 2.444110550668727 9.5397e-08 au
i 21.94045919430114 3.8679e-06 deg
node 129.2318812190796 9.0363e-06 deg
peri 261.4925724939375 1.2912e-05 deg
M 321.778037138228 1.0646e-05 deg
tp 2459411.975887430793
(2021-Jul-16.47588743)
5.9298e-05 TDB
period 1991.821292653413
5.45
1.1119e-05
3.044e-08
d
yr
n .1807391061275505 1.009e-09 deg/d
Q 3.75217311516528 1.3965e-08 au
  Orbit Determination Parameters
   # obs. used (total)      2967  
   data-arc span      31931 days (87.42 yr)  
   first obs. used      1933-07-27  
   last obs. used      2020-12-28  
   planetary ephem.      DE441  
   SB-pert. ephem.      SB441-N16  
   condition code      0  
   norm. resid. RMS      .36703  
   source      ORB  
   producer      Otto Matic  
   solution date      2021-Apr-12 12:16:47  

Additional Information
 Earth MOID = 1.55709 au 
 Jupiter MOID = 2.12977 au 
 T_jup = 3.079 
[ show covariance matrix ]

Ephemeris | Orbit Diagram | Orbital Elements | Mission Design | Physical Parameters | Discovery Circumstances | Close-Approach Data ]

Physical Parameter Table
Parameter Symbol Value Units Sigma Reference Notes
absolute magnitude H 10.72   n/a E2021B10  
diameter diameter 36.28 km 1.1 IRAS-A-FPA-3-RDR-IMPS-V6.0 IRAS observations used: 6
rotation period rot_per 7.932 h n/a LCDB (Rev. 2020-October); Warner et al., 2009 Published Reference List:
[Higgins, D.J. (2011) http://www.david-higgins.com/Astronomy/asteroid/lightcurves.htm]
[Durech, J.; Hanus, J.; Oszkiewsicz, D.; Vanco, R. (2016) Astron. Astrophys. 587, A48.]
[Hanus, J.; Durech, J.; Oszkiewicz, D.A.; Behrend, R.; et al. (2016) Astron. Astrophys. 586, A108.]
geometric albedo albedo 0.0643   0.004 IRAS-A-FPA-3-RDR-IMPS-V6.0 IRAS observations used: 6

1312 Vassar (1933 OT)          Discovered 1933-Jul-27 by Van Biesbroeck, G. at Williams Bay
Reference: DISCOVERY.DBLast Updated: 2003-08-29

[ show close-approach data ]
Alternate Designations
 1933 OT = 1944 QE = 2019 FN5 = A908 CD 
Ephemeris | Orbit Diagram | Orbital Elements | Mission Design | Physical Parameters | Discovery Circumstances | Close-Approach Data ]
ABOUT SSD CREDITS/AWARDS PRIVACY/COPYRIGHT GLOSSARY LINKS
FirstGov 2021-Apr-16 09:28 UT
(server date/time)  
NASA Home Page
Site Manager:   Ryan S. Park
Webmaster  Alan B. Chamberlin